Weather History for Cooperstown, ND

Change the Weather History Date:

Monday, February 18, 2013

  Actual Average (KJMS) Record (KJMS)
Temperature  
Mean Temperature 14 °F 16 °F  
Max Temperature 32 °F 26 °F 54 °F (1954)
Min Temperature -5 °F 7 °F -31 °F (1910)
Degree Days  
Heating Degree Days 52 49  
Month to date heating degree days 929  
Since 1 July heating degree days 6291  
Cooling Degree Days 0 0  
Month to date cooling degree days 0  
Year to date cooling degree days 0  
Moisture  
Dew Point 6 °F    
Average Humidity 92    
Maximum Humidity 100    
Minimum Humidity 77    
Precipitation  
Precipitation 1.52 in 0.01 in 0.31 in (1998)
Month to date precipitation 0.21  
Year to date precipitation 0.66  
Sea Level Pressure  
Sea Level Pressure 29.83 in    
Wind  
Wind Speed 26 mph (NNW)    
Max Wind Speed 38 mph    
Max Gust Speed 47 mph    
Visibility 2 miles    
Events Rain , Snow    
T = Trace of Precipitation, MM = Missing Value Source: NWS Daily Summary

Daily Weather History Graph

Daily Weather History Graph

Search for Another Location

Airport:

Trip Planner

Search our weather history database for the weather conditions in past years. The results will help you decide how hot, cold, wet, or windy it might be!

Date:

Astronomy

Feb. 18, 2013 Rise Set
Actual Time 7:32 AM CST 6:01 PM CST
Civil Twilight 7:00 AM CST 6:32 PM CST
Nautical Twilight 6:25 AM CST 7:08 PM CST
Astronomical Twilight 5:49 AM CST 7:43 PM CST
Moon 11:36 AM CST (2/18) 2:24 AM CST (2/18)
Length of Visible Light 11h 31m
Length of Day
10h 29m
First Quarter, 58% of the Moon is Illuminated
Feb 18
First Quarter
Feb 25
Full
Mar 4
Last Quarter
Mar 11
New
Mar 19
First Quarter

Hourly Weather History & Observations

Time (CST) Temp. Windchill Dew Point Humidity Pressure Visibility Wind Dir Wind Speed Gust Speed Precip Events Conditions
12:15 AM 32.0 °F 23.6 °F 32.0 °F 100% 29.45 in 3.0 mi NW 10.4 mph - N/A Snow Light Snow
12:35 AM 26.6 °F 12.4 °F 26.6 °F 100% 29.47 in 5.0 mi North 21.9 mph 29.9 mph N/A Rain Light Freezing Rain
12:55 AM 24.8 °F 9.3 °F 24.8 °F 100% 29.48 in 2.0 mi North 24.2 mph - 0.02 in Snow Light Snow
1:15 AM 24.8 °F 11.1 °F 24.8 °F 100% 29.49 in 1.8 mi North 18.4 mph 24.2 mph 0.03 in Snow Light Snow
1:35 AM 23.0 °F 8.0 °F 23.0 °F 100% 29.50 in 1.2 mi North 20.7 mph - 0.13 in Snow Light Snow
1:55 AM 23.0 °F 7.2 °F 23.0 °F 100% 29.52 in 3.0 mi NNW 23.0 mph 27.6 mph 0.17 in Snow Light Snow
2:15 AM 23.0 °F 7.2 °F 23.0 °F 100% 29.53 in 1.5 mi NNW 23.0 mph 29.9 mph 0.09 in Snow Light Snow
2:35 AM 21.2 °F 3.9 °F 21.2 °F 100% 29.54 in 2.5 mi NNW 26.5 mph 29.9 mph 0.12 in Snow Light Snow
2:55 AM 19.4 °F 1.8 °F 19.4 °F 100% 29.55 in 2.5 mi NNW 25.3 mph 29.9 mph 0.13 in Snow Light Snow
3:15 AM 19.4 °F 1.4 °F 19.4 °F 100% 29.56 in 1.5 mi NNW 26.5 mph 33.4 mph 0.02 in Snow Light Snow
3:35 AM 19.4 °F 1.1 °F 19.4 °F 100% 29.57 in 2.0 mi NNW 27.6 mph 35.7 mph 0.06 in Snow Light Snow
3:55 AM 19.4 °F 2.5 °F 19.4 °F 100% 29.59 in 1.5 mi NNW 23.0 mph 33.4 mph 0.11 in Snow Light Snow
4:15 AM 17.6 °F -1.6 °F 17.6 °F 100% 29.60 in 1.0 mi NNW 28.8 mph 36.8 mph 0.05 in Snow Light Snow
4:35 AM 17.6 °F -2.8 °F 17.6 °F 100% 29.61 in 1.0 mi North 33.4 mph 39.1 mph 0.06 in Snow Light Snow
4:55 AM 15.8 °F -5.5 °F 15.8 °F 100% 29.62 in 0.5 mi NNW 34.5 mph 41.4 mph 0.11 in Snow Snow
5:15 AM 14.0 °F -5.8 °F 14.0 °F 100% 29.65 in 0.8 mi NNW 26.5 mph 43.7 mph 0.05 in Snow Light Snow
5:35 AM 14.0 °F -7.4 °F 12.2 °F 93% 29.66 in 0.8 mi NNW 32.2 mph 47.2 mph 0.13 in Rain Light Freezing Rain
5:55 AM 12.2 °F -10.8 °F 10.4 °F 92% 29.67 in 0.8 mi North 35.7 mph 43.7 mph 0.16 in Snow Light Snow
6:15 AM 10.4 °F -12.7 °F 10.4 °F 100% 29.68 in 0.8 mi NNW 33.4 mph 44.9 mph 0.03 in Snow Light Snow
6:35 AM 10.4 °F -13.2 °F 8.6 °F 92% 29.69 in 0.8 mi NNW 35.7 mph 43.7 mph 0.06 in Rain Light Freezing Rain
6:55 AM 8.6 °F -15.7 °F 8.6 °F 100% 29.70 in 1.0 mi North 35.7 mph 42.6 mph 0.10 in Rain Light Freezing Rain
7:35 AM 6.8 °F -17.3 °F 6.8 °F 100% 29.72 in 0.2 mi NNW 32.2 mph 43.7 mph 0.06 in Rain Light Freezing Rain
8:15 AM 6.8 °F -17.9 °F 5.0 °F 92% 29.75 in 0.2 mi North 34.5 mph 41.4 mph 0.02 in Rain Light Freezing Rain
8:55 AM 6.8 °F -16.9 °F 5.0 °F 92% 29.78 in 0.2 mi NNW 31.1 mph 40.3 mph 0.08 in Rain Light Freezing Rain
9:15 AM 6.8 °F -16.9 °F 5.0 °F 92% 29.79 in 0.5 mi NNW 31.1 mph 38.0 mph 0.01 in Rain Light Freezing Rain
9:35 AM 6.8 °F -17.6 °F 5.0 °F 92% 29.80 in 0.2 mi North 33.4 mph 43.7 mph 0.02 in Snow Heavy Snow
9:55 AM 6.8 °F -15.5 °F 5.0 °F 92% 29.81 in 0.5 mi NNW 26.5 mph 36.8 mph 0.04 in Snow Snow
10:15 AM 6.8 °F -18.5 °F 5.0 °F 92% 29.81 in 0.5 mi NNW 36.8 mph 43.7 mph 0.01 in Snow Snow
10:35 AM 6.8 °F -18.2 °F 5.0 °F 92% 29.83 in 0.8 mi NNW 35.7 mph 40.3 mph 0.04 in Snow Light Snow
10:55 AM 6.8 °F -18.5 °F 5.0 °F 92% 29.85 in 0.2 mi North 36.8 mph 44.9 mph 0.12 in Snow Heavy Snow
11:15 AM 6.8 °F -17.3 °F 5.0 °F 92% 29.85 in 0.5 mi NNW 32.2 mph 46.0 mph 0.03 in Rain Light Freezing Rain
11:35 AM 5.0 °F -20.1 °F 3.2 °F 92% 29.87 in 0.5 mi NNW 33.4 mph 40.3 mph 0.14 in Rain Light Freezing Rain
11:55 AM 5.0 °F -17.9 °F 1.4 °F 85% 29.88 in 0.8 mi NNW 26.5 mph 40.3 mph 0.29 in Snow Light Snow
12:15 PM 5.0 °F -20.1 °F 1.4 °F 85% 29.88 in 0.5 mi NNW 33.4 mph 39.1 mph 0.04 in Rain Light Freezing Rain
12:55 PM 5.0 °F -19.7 °F 1.4 °F 85% 29.89 in 0.5 mi NNW 32.2 mph 41.4 mph 0.09 in Snow Snow
1:15 PM 3.2 °F -21.8 °F -0.4 °F 85% 29.90 in 1.5 mi NNW 31.1 mph 42.6 mph N/A Rain Light Freezing Rain
1:35 PM 3.2 °F -22.2 °F -0.4 °F 85% 29.90 in 0.8 mi NNW 32.2 mph 42.6 mph N/A Rain Light Freezing Rain
1:55 PM 5.0 °F -19.4 °F 1.4 °F 85% 29.90 in 0.8 mi NNW 31.1 mph 39.1 mph N/A Rain Light Freezing Rain
2:15 PM 5.0 °F -19.4 °F 1.4 °F 85% 29.91 in 0.8 mi NNW 31.1 mph 40.3 mph N/A Rain Light Freezing Rain
2:35 PM 3.2 °F -23.8 °F -0.4 °F 85% 29.92 in 1.0 mi NNW 38.0 mph 43.7 mph N/A Rain Light Freezing Rain
2:55 PM 3.2 °F -21.1 °F -0.4 °F 85% 29.92 in 1.8 mi NNW 28.8 mph 35.7 mph N/A Rain Light Freezing Rain
3:15 PM 3.2 °F -22.2 °F -0.4 °F 85% 29.93 in 1.0 mi NNW 32.2 mph 39.1 mph N/A Rain Light Freezing Rain
3:35 PM 3.2 °F -21.1 °F -0.4 °F 85% 29.94 in 2.0 mi NNW 28.8 mph 38.0 mph N/A Rain Light Freezing Rain
3:55 PM 3.2 °F -21.5 °F -0.4 °F 85% 29.94 in 1.0 mi NNW 29.9 mph 39.1 mph N/A Rain Light Freezing Rain
4:15 PM 1.4 °F -22.7 °F -0.4 °F 92% 29.95 in 1.0 mi NNW 26.5 mph 35.7 mph N/A Rain Light Freezing Rain
4:35 PM 1.4 °F -21.9 °F -0.4 °F 92% 29.96 in 2.5 mi NNW 24.2 mph 34.5 mph N/A Rain Light Freezing Rain
4:55 PM 1.4 °F -23.5 °F -0.4 °F 92% 29.98 in 1.5 mi NNW 28.8 mph 39.1 mph N/A Rain Light Freezing Rain
5:15 PM 1.4 °F -23.2 °F -0.4 °F 92% 29.99 in 1.0 mi NNW 27.6 mph 33.4 mph N/A Rain Light Freezing Rain
5:35 PM 3.2 °F -21.1 °F -0.4 °F 85% 29.99 in 1.0 mi NNW 28.8 mph 39.1 mph N/A Rain Light Freezing Rain
5:55 PM 1.4 °F -24.6 °F -0.4 °F 92% 30.00 in 0.5 mi North 32.2 mph 39.1 mph 0.01 in Rain Light Freezing Rain
6:15 PM 1.4 °F -24.3 °F -0.4 °F 92% 30.01 in 0.5 mi NNW 31.1 mph 36.8 mph N/A Snow Snow
6:35 PM 1.4 °F -24.6 °F -0.4 °F 92% 30.02 in 0.8 mi North 32.2 mph 38.0 mph 0.01 in Rain Light Freezing Rain
6:55 PM 1.4 °F -23.9 °F -0.4 °F 92% 30.03 in 1.2 mi North 29.9 mph 34.5 mph 0.02 in Rain Light Freezing Rain
7:15 PM -0.4 °F -26.7 °F -0.4 °F 100% 30.04 in 1.0 mi North 31.1 mph 36.8 mph N/A Rain Light Freezing Rain
7:35 PM -0.4 °F -26.4 °F -2.2 °F 92% 30.05 in 1.2 mi North 29.9 mph 36.8 mph 0.01 in Rain Light Freezing Rain
7:55 PM -0.4 °F -25.6 °F -2.2 °F 92% 30.06 in 1.2 mi North 27.6 mph 40.3 mph 0.01 in Rain Light Freezing Rain
8:15 PM -0.4 °F -26.4 °F -2.2 °F 92% 30.06 in 1.2 mi North 29.9 mph 36.8 mph N/A Rain Light Freezing Rain
8:35 PM -0.4 °F -25.6 °F -2.2 °F 92% 30.07 in 1.5 mi North 27.6 mph 36.8 mph N/A Rain Light Freezing Rain
9:15 PM -0.4 °F -24.7 °F -4.0 °F 85% 30.08 in 2.0 mi NNW 25.3 mph 33.4 mph N/A Rain Light Freezing Rain
9:35 PM -2.2 °F -28.8 °F -4.0 °F 92% 30.09 in 2.5 mi North 29.9 mph 36.8 mph N/A Rain Light Freezing Rain
9:55 PM -2.2 °F -27.6 °F -5.8 °F 85% 30.10 in 3.0 mi North 26.5 mph 36.8 mph N/A Rain Light Freezing Rain
10:15 PM -4.0 °F -29.6 °F -7.6 °F 85% 30.11 in 5.0 mi North 25.3 mph 33.4 mph N/A   Overcast
10:55 PM -4.0 °F -29.6 °F -9.4 °F 78% 30.13 in 8.0 mi NNW 25.3 mph - N/A   Overcast
11:15 PM -4.0 °F -30.9 °F -9.4 °F 78% 30.13 in 6.0 mi NNW 28.8 mph 34.5 mph N/A   Overcast
11:35 PM -5.8 °F -32.4 °F -9.4 °F 84% 30.14 in 6.0 mi North 26.5 mph 32.2 mph N/A   Overcast
11:55 PM -5.8 °F -32.4 °F -11.2 °F 77% 30.15 in 5.0 mi NNW 26.5 mph 34.5 mph N/A   Haze